User: anonymous   Login
Location: Unspecified
(0.0000°N, 0.0000°E)
Time: 20:41:20
(UTC+00:00)
Language:

HO-68 - Orbit

View from above orbital plane
View from above orbital plane
View from above satellite
View from above satellite

Ground track
Ground track

The orbit data is extracted from the following two-line orbital elements,

1 36122U 09072B   17119.92472962 -.00000057 +00000-0 -38261-4 0  9990
2 36122 100.1049 148.3910 0007306 352.3501 007.7501 13.16339364354171
Epoch (UTC): 29 April 2017 22:11:36
Eccentricity: 0.0007306
inclination: 100.1049°
perigee height: 1193 km
apogee height: 1204 km
right ascension of ascending node: 148.3910°
argument of perigee: 352.3501°
revolutions per day: 13.16339364
mean anomaly at epoch: 7.7501°
orbit number at epoch: 35417

The dashed part of the orbit path shows where the satellite is in the earth's shadow,  

DLR